Location: Blue Mountain Vista Observatory
(40.6992°N, 75.9422°W)
Time: 08:25:48
(UTC-04:00)

IDEFIX/ARIANE 42P - Visible Passes

Search period start: 24 July 2014 00:00
Search period end: 03 August 2014 00:00
Orbit: 785 x 805 km, 98.3° (Epoch: 24 July)

Date Brightness Start Highest point End Pass type
(mag) Time Alt. Az. Time Alt. Az. Time Alt. Az.
24 Jul 2.8 20:54:48 10° S 21:00:01 76° WSW 21:05:15 10° NNW visible
25 Jul 5.1 22:08:47 10° SW 22:11:56 16° W 22:15:07 10° NW visible
26 Jul 4.4 21:39:05 10° SSW 21:43:35 29° W 21:48:06 10° NW visible
27 Jul 3.3 21:10:15 10° S 21:15:20 54° W 21:20:27 10° NNW visible
28 Jul 5.4 22:26:04 10° WSW 22:27:26 11° W 22:28:48 10° WNW visible
29 Jul 4.8 21:55:08 10° SW 21:59:00 21° W 22:02:54 10° NW visible
30 Jul 3.9 21:25:53 10° SSW 21:30:42 38° W 21:35:32 10° NNW visible
31 Jul 2.9 20:57:19 10° S 21:02:30 70° WSW 21:07:42 10° NNW visible
01 Aug 5.1 22:11:36 10° SW 22:14:28 15° W 22:17:20 10° WNW visible
02 Aug 4.5 21:41:43 10° SSW 21:46:05 27° W 21:50:29 10° NW visible
